Location: Unspecified
(42.3650°N, 71.1030°W)
Time: 14:39:51
(UTC+00:00)

Explorer 11/Cluster Stage 4 - Pass Details

Date: 28 June 2024
Orbit: 465 x 1214 km, 28.8° (Epoch: 22 July)

Event Time Altitude Azimuth Distance (km) Brightness Sun altitude
Rises 23:50:00 0° 240° (WSW) 3,867 10.6 4.8°
Reaches altitude 10° 23:53:03 10° 229° (SW) 3,000 9.9 4.3°
Maximum altitude 23:59:20 29° 173° (S) 2,050 8.5 3.3°
Drops below altitude 10° 00:05:54 10° 119° (ESE) 3,157 9.0 2.2°
Sets 00:09:12 0° 108° (ESE) 4,101 9.6 1.7°
